Weather in Novopokrovka

Russia / Novosibirsk Oblast     55°11′28″N   76°00′26″E
temp.,
°C
wind,
m/s
gust,
m/s
humid.,
%
clouds,
%
prec.,
mm/h
press.,
hPa
HPBL,
m
1 march, mon
mon101:00−15e61295100 0.6 1014350
04:00−13ene61095100 0.8 1011335
07:00−15ene599599 1.0 1010254
10:00−14ene5995100 0.3 1009302
13:00−12ne5794100 0.5 1009318
16:00−11ne5794100 0.3 1009335
19:00−12nne4794100 0.6 1010322
22:00−15n349786 0.1 101195
2 march, tue
tue201:00−18n239874 0.1 101421
04:00−20nnw2210069 0.0 101420
07:00−22nw2210061 0.0 101620
10:00−21wnw129873 0.0 101620
13:00−16sw129164 0.0 1016222
16:00−14sw229098 0.0 1015316
19:00−15ssw1296100 0.1 101523
22:00−17ssw229687 0.1 101520
3 march, wed
wed301:00−17ssw239783 0.1 101521
04:00−17ssw229780 0.1 101530
07:00−17ssw239681 0.1 101557
10:00−17ssw359776 0.1 1015109
13:00−13ssw479482 0.1 1016315
16:00−12s61092100 0.0 1015458
19:00−15s61292100 0.1 1015440
22:00−13s61294100 0.2 1013497
4 march, thu
thu401:00−10ssw61293100 0.6 1012484
04:00−8s71393100 0.4 1010518
07:00−6ssw71494100 0.9 1009573
10:00−4ssw81493100 0.4 1008692
13:00−2ssw81394100 0.8 1007828
16:00−1ssw91492100 0.3 1006872
19:00−2ssw81494100 0.8 1005812
22:00−1ssw81491100 0.3 1003786
5 march, fri
fri501:00−1ssw91594100 0.8 1003846
04:00−2ssw71392100 0.1 1002544
07:00−2w61196100 0.3 1003589
10:00−8w6129296 0.2 1007379
13:00−9w6118774 0.2 1011475
16:00−8sw7118614 0.0 1013506
19:00−8ssw8168757 0.0 1012677
22:00−6sw101793100 0.6 10101078